KC3BAN-13 Weather Reports


Display with metric or nautical units.
time (UTC)temp
F
wind
direction
speed
MPH
gust
MPH
rain 1hr
in
rain 24hr
in
rain mn
in
humidity
%
barometer
mb
20260505041321 60 214 0.0 1.0 0.00 0.00 0.00 64 1003.6
20260505040815 60 214 0.0 1.0 0.00 0.00 0.00 64 1003.6
20260505040308 60 214 0.0 1.0 0.00 0.00 0.00 64 1003.6
20260505035801 60 223 0.0 1.0 0.00 0.00 0.00 64 1003.5
20260505035257 60 223 0.0 1.0 0.00 0.00 0.00 65 1003.5
20260505034750 60 223 0.0 1.0 0.00 0.00 0.00 65 1003.5
20260505034501 60 240 0.0 0.0 0.00 0.00 0.00 66 1003.6
20260505033232 59 240 0.0 1.0 0.00 0.00 0.00 66 1003.5
20260505032727 59 240 0.0 0.0 0.00 0.00 0.00 67 1003.5
20260505032219 59 240 0.0 0.0 0.00 0.00 0.00 67 1003.5
20260505031713 59 240 0.0 2.0 0.00 0.00 0.00 68 1003.5
20260505031207 59 240 0.0 2.0 0.00 0.00 0.00 69 1003.5
20260505030701 58 245 0.0 1.0 0.00 0.00 0.00 70 1003.5
20260505030154 58 193 0.0 0.0 0.00 0.00 0.00 71 1003.6
20260505025647 59 193 0.0 0.0 0.00 0.00 0.00 72 1003.6
20260505025141 59 193 0.0 0.0 0.00 0.00 0.00 72 1003.6
20260505024636 59 193 0.0 0.0 0.00 0.00 0.00 72 1003.6
20260505024129 59 193 0.0 0.0 0.00 0.00 0.00 71 1003.5
20260505023849 59 193 0.0 1.0 0.00 0.00 0.00 69 1003.6
20260505023336 60 193 0.0 1.0 0.00 0.00 0.00 68 1003.4
20260505022611 60 193 0.0 0.0 0.00 0.00 0.00 66 1003.6
20260505022107 60 193 0.0 0.0 0.00 0.00 0.00 66 1003.5
20260505021600 60 193 0.0 0.0 0.00 0.00 0.00 64 1003.5
20260505021054 60 193 0.0 0.0 0.00 0.00 0.00 64 1003.4
20260505020547 60 193 0.0 0.0 0.00 0.00 0.00 64 1003.4
20260505020041 60 193 0.0 0.0 0.00 0.00 0.00 63 1003.3
20260505015533 61 193 0.0 0.0 0.00 0.00 0.00 63 1003.4
20260505015027 61 193 0.0 0.0 0.00 0.00 0.00 63 1003.4
20260505014521 60 193 0.0 0.0 0.00 0.00 0.00 63 1003.4
20260505014016 60 193 0.0 0.0 0.00 0.00 0.00 65 1003.4
20260505013510 60 193 0.0 0.0 0.00 0.00 0.00 66 1003.3
20260505013004 60 193 0.0 0.0 0.00 0.00 0.00 68 1003.3
20260505012457 59 193 0.0 0.0 0.00 0.00 0.00 69 1003.3
20260505011952 60 193 0.0 0.0 0.00 0.00 0.00 70 1003.2
20260505011446 60 193 0.0 0.0 0.00 0.00 0.00 70 1003.1
20260505010940 60 193 0.0 0.0 0.00 0.00 0.00 70 1003.1
20260505010433 61 193 0.0 0.0 0.00 0.00 0.00 70 1003.0
20260505005927 61 193 0.0 0.0 0.00 0.00 0.00 70 1003.0
20260505005421 62 193 0.0 0.0 0.00 0.00 0.00 70 1002.9
20260505004916 62 193 0.0 0.0 0.00 0.00 0.00 70 1002.9
20260505004409 62 193 0.0 0.0 0.00 0.00 0.00 70 1002.9
20260505003903 62 193 0.0 0.0 0.00 0.00 0.00 69 1002.9
20260505003357 62 193 0.0 0.0 0.00 0.00 0.00 68 1002.9
20260505002851 63 193 0.0 0.0 0.00 0.00 0.00 67 1002.9
20260505002346 63 193 0.0 0.0 0.00 0.00 0.00 67 1002.9
20260505001839 63 193 0.0 0.0 0.00 0.00 0.00 67 1002.9
20260505001333 63 193 0.0 0.0 0.00 0.00 0.00 66 1002.9
20260505000828 64 193 0.0 0.0 0.00 0.00 0.00 65 1003.0
20260505000322 64 193 0.0 0.0 0.00 0.00 0.00 63 1002.9
20260504235817 65 193 0.0 0.0 0.00 0.00 0.00 62 1002.8
20260504235535 65 193 0.0 0.0 0.00 0.00 0.00 61 1002.9
20260504234804 66 193 0.0 0.0 0.00 0.00 0.00 60 1002.9
20260504234257 66 193 0.0 0.0 0.00 0.00 0.00 59 1002.8
20260504234011 67 193 0.0 0.0 0.00 0.00 0.00 57 1002.7
20260504233511 68 193 0.0 0.0 0.00 0.00 0.00 56 1002.7
20260504232739 69 193 0.0 0.0 0.00 0.00 0.00 55 1002.6
20260504232233 70 193 0.0 0.0 0.00 0.00 0.00 52 1002.6
20260504231727 71 193 0.0 0.0 0.00 0.00 0.00 51 1002.6
20260504231448 72 193 0.0 0.0 0.00 0.00 0.00 49 1002.7
20260504230717 72 193 0.0 0.0 0.00 0.00 0.00 47 1002.7
20260504230427 73 193 0.0 0.0 0.00 0.00 0.00 48 1002.7
20260504225703 73 193 0.0 0.0 0.00 0.00 0.00 48 1002.7
20260504225158 73 193 0.0 0.0 0.00 0.00 0.00 48 1002.6
20260504224651 73 193 0.0 0.0 0.00 0.00 0.00 48 1002.6
20260504224147 73 288 0.0 1.0 0.00 0.00 0.00 46 1002.6
20260504223639 73 290 0.0 1.0 0.00 0.00 0.00 46 1002.6
20260504223133 73 273 0.0 2.0 0.00 0.00 0.00 45 1002.7
20260504222627 73 303 0.0 2.0 0.00 0.00 0.00 45 1002.7
20260504222346 73 89 0.0 3.0 0.00 0.00 0.00 44 1002.6
20260504221617 74 49 0.0 2.0 0.00 0.00 0.00 44 1002.6
20260504221109 74 74 0.0 2.0 0.00 0.00 0.00 44 1002.6
20260504220603 74 147 0.0 2.0 0.00 0.00 0.00 43 1002.7
20260504220057 74 97 1.0 2.0 0.00 0.00 0.00 43 1002.6
20260504215551 74 240 1.0 4.0 0.00 0.00 0.00 44 1002.6
20260504215047 75 253 0.0 4.0 0.00 0.00 0.00 43 1002.7
20260504214539 74 113 1.0 4.0 0.00 0.00 0.00 45 1002.7
20260504214256 75 60 1.0 4.0 0.00 0.00 0.00 42 1002.7
20260504213527 75 128 0.0 4.0 0.00 0.00 0.00 41 1002.8
20260504213021 76 294 1.0 6.0 0.00 0.00 0.00 42 1002.7
20260504212516 76 255 1.0 6.0 0.00 0.00 0.00 42 1002.7
20260504212230 77 228 0.0 3.0 0.00 0.00 0.00 40 1002.7
20260504211504 77 16 0.0 2.0 0.00 0.00 0.00 41 1002.7
20260504210958 77 5 0.0 2.0 0.00 0.00 0.00 40 1002.7
20260504210451 78 78 0.0 3.0 0.00 0.00 0.00 44 1002.7
20260504205946 78 3 1.0 4.0 0.00 0.00 0.00 42 1002.6
20260504205440 78 79 1.0 4.0 0.00 0.00 0.00 40 1002.7
20260504204934 79 114 0.0 2.0 0.00 0.00 0.00 39 1002.7
20260504204427 79 277 1.0 5.0 0.00 0.00 0.00 43 1002.9
20260504204138 80 85 1.0 5.0 0.00 0.00 0.00 36 1002.8
20260504203416 80 230 1.0 5.0 0.00 0.00 0.00 37 1002.8
20260504202909 80 148 1.0 6.0 0.00 0.00 0.00 35 1002.8
20260504202405 79 304 1.0 6.0 0.00 0.00 0.00 31 1002.9
20260504201857 79 255 2.0 6.0 0.00 0.00 0.00 35 1002.9
20260504201351 79 212 1.0 6.0 0.00 0.00 0.00 35 1003.0
20260504200846 79 144 1.0 6.0 0.00 0.00 0.00 34 1003.0
20260504200340 78 222 2.0 9.0 0.00 0.00 0.00 37 1003.1
20260504195833 78 221 2.0 9.0 0.00 0.00 0.00 30 1003.2
20260504195328 77 235 3.0 8.0 0.00 0.00 0.00 35 1003.3
20260504194822 78 216 3.0 11.0 0.00 0.00 0.00 32 1003.4
20260504194318 77 240 3.0 11.0 0.00 0.00 0.00 35 1003.4
20260504193810 78 247 2.0 6.0 0.00 0.00 0.00 32 1003.5
20260504193304 77 32 2.0 6.0 0.00 0.00 0.00 35 1003.5
20260504192758 77 65 2.0 8.0 0.00 0.00 0.00 36 1003.7
20260504192510 77 169 3.0 11.0 0.00 0.00 0.00 33 1003.8
20260504191747 77 199 3.0 11.0 0.00 0.00 0.00 32 1003.9
20260504191240 78 188 2.0 6.0 0.00 0.00 0.00 35 1003.9
20260504190735 77 108 1.0 6.0 0.00 0.00 0.00 35 1003.9
20260504190454 77 107 2.0 11.0 0.00 0.00 0.00 36 1003.9
20260504185734 76 187 3.0 11.0 0.00 0.00 0.00 36 1004.0
20260504185235 77 79 3.0 11.0 0.00 0.00 0.00 35 1004.2
20260504184234 76 139 2.0 9.0 0.00 0.00 0.00 34 1004.2
20260504183734 76 227 1.0 8.0 0.00 0.00 0.00 36 1004.4
20260504183455 76 305 2.0 7.0 0.00 0.00 0.00 36 1004.4
20260504182735 76 136 2.0 9.0 0.00 0.00 0.00 39 1004.4
20260504182235 76 235 2.0 9.0 0.00 0.00 0.00 37 1004.5
20260504181734 75 227 2.0 6.0 0.00 0.00 0.00 34 1004.6
20260504181234 75 236 3.0 10.0 0.00 0.00 0.00 33 1004.6
20260504180734 75 279 4.0 10.0 0.00 0.00 0.00 34 1004.8
20260504180235 75 173 3.0 9.0 0.00 0.00 0.00 34 1004.7
20260504175957 75 153 2.0 7.0 0.00 0.00 0.00 34 1004.7
20260504175235 75 205 2.0 7.0 0.00 0.00 0.00 33 1004.8
20260504174953 75 226 2.0 9.0 0.00 0.00 0.00 36 1004.9
20260504174235 75 293 2.0 9.0 0.00 0.00 0.00 40 1005.0
20260504173735 74 134 2.0 9.0 0.00 0.00 0.00 40 1005.1
20260504173236 74 173 2.0 9.0 0.00 0.00 0.00 36 1005.2
20260504172734 73 175 3.0 8.0 0.00 0.00 0.00 36 1005.3
20260504172454 73 222 3.0 10.0 0.00 0.00 0.00 34 1005.4
20260504171735 74 304 2.0 10.0 0.00 0.00 0.00 36 1005.3
20260504171457 73 252 1.0 5.0 0.00 0.00 0.00 37 1005.4
20260504170734 73 94 2.0 6.0 0.00 0.00 0.00 35 1005.4
20260504170454 73 6 1.0 6.0 0.00 0.00 0.00 35 1005.4
20260504160225 70 237 2.0 9.0 0.00 0.00 0.00 36 1006.3
20260504150721 67 69 1.0 5.0 0.00 0.00 0.00 43 1006.6
20260504150221 67 169 1.0 6.0 0.00 0.00 0.00 40 1006.6
20260504141217 63 208 2.0 7.0 0.00 0.00 0.00 46 1007.0
20260504140716 63 231 2.0 7.0 0.00 0.00 0.00 48 1007.0
20260504140216 62 204 2.0 6.0 0.00 0.00 0.00 49 1007.0
20260504130715 57 224 2.0 6.0 0.00 0.00 0.00 59 1007.3
20260504130214 56 234 2.0 6.0 0.00 0.00 0.00 59 1007.3
20260504120208 54 252 3.0 12.0 0.00 0.00 0.00 61 1007.9
20260504110104 50 223 1.0 3.0 0.00 0.00 0.00 68 1008.0
20260504081926 51 231 0.0 2.0 0.00 0.00 0.00 69 1008.2
20260504081648 51 260 0.0 2.0 0.00 0.00 0.00 70 1008.1
20260504080922 51 223 0.0 3.0 0.00 0.00 0.00 70 1008.1
20260504080422 50 229 0.0 3.0 0.00 0.00 0.00 71 1008.1
20260504070408 49 259 0.0 2.0 0.00 0.00 0.00 73 1008.3
20260504050713 44 242 0.0 1.0 0.00 0.00 0.00 77 1008.5
20260504050208 44 152 0.0 0.0 0.00 0.00 0.00 76 1008.5
20260504045702 44 152 0.0 0.0 0.00 0.00 0.00 75 1008.4
20260504045156 43 152 0.0 0.0 0.00 0.00 0.00 75 1008.3
20260504044650 43 152 0.0 0.0 0.00 0.00 0.00 75 1008.4
20260504044144 43 152 0.0 0.0 0.00 0.00 0.00 74 1008.4
20260504043638 43 152 0.0 0.0 0.00 0.00 0.00 74 1008.4
20260504043132 43 152 0.0 0.0 0.00 0.00 0.00 73 1008.4
20260504042850 43 152 0.0 0.0 0.00 0.00 0.00 73 1008.4